Wetbulb
60.53 59.55 59.36 59.38 59.32 59.17 58.90 58.62 58.73 58.80 58.58 58.35 58.17 57.98 57.81 57.80 57.71 57.80 57.66 57.69 57.13 56.63 56.62 57.05 57.51 58.33 53.89 48.25 51.91 62.87 70.92 70.29 62.42 54.25 49.54 49.91 52.84 55.06 52.64 62.55 64.97 61.88 61.67 63.77 64.23 63.87 63.77
60.83 60.27 59.08 58.90 59.13 58.64 58.64 58.64 58.38 58.39 58.38 58.47 58.33 58.24 58.04 57.94 57.50 57.66 57.70 57.81 57.10 56.84 56.78 57.07 57.50 58.53 50.95 43.90 57.88 65.85 63.50 61.60 55.23 50.15 49.44 51.21 54.95 57.82 54.58 61.74 62.33 65.47 64.47 63.21 63.54 62.79 64.03
61.09 60.73 59.73 58.55 58.22 59.08 58.62 58.66 58.47 58.21 58.31 58.15 58.12 58.16 58.07 57.82 57.57 57.60 57.22 57.00 56.45 56.30 56.76 57.27 57.35 57.18 50.57 47.56 60.54 64.73 62.51 59.42 55.91 49.44 50.66 54.41 54.83 54.29 54.11 51.93 65.18 65.69 61.40 62.20 62.08 64.20 62.56
61.13 61.08 60.70 59.02 58.10 58.83 58.63 58.85 58.43 58.06 57.98 57.97 58.07 57.80 57.74 57.56 57.48 56.83 56.75 56.20 55.93 56.61 57.12 58.05 57.98 53.46 45.95 57.06 57.17 54.93 59.66 54.32 55.57 50.43 50.77 54.76 55.59 53.49 52.07 53.35 56.65 62.06 60.26 56.50 61.28 62.27 61.44
61.39 60.60 59.81 59.54 58.22 58.63 58.46 58.48 58.07 57.58 57.39 57.46 57.54 57.48 57.32 57.24 56.85 56.36 55.37 55.47 56.28 57.49 58.72 58.32 51.81 49.67 49.04 61.84 54.00 54.91 55.96 54.56 50.63 49.45 50.92 55.46 52.71 51.17 51.54 48.04 48.85 59.98 51.95 55.65 59.38 61.50 62.25
60.85 59.56 59.04 58.66 58.13 57.69 58.35 58.28 57.88 57.31 57.11 57.10 57.10 57.01 56.97 56.92 56.30 55.15 54.46 55.23 55.41 55.73 57.77 58.19 57.28 48.84 52.93 54.66 53.43 53.37 53.16 54.36 51.14 49.77 50.71 49.69 49.05 45.43 45.95 44.49 40.54 49.76 54.35 54.87 53.83 57.73 59.78
60.35 59.55 59.26 58.62 57.67 57.54 58.14 58.11 58.04 57.39 56.95 56.88 56.77 56.41 56.40 56.22 55.55 54.28 51.39 49.90 49.63 49.09 52.25 51.43 51.66 52.79 54.82 55.12 56.62 53.43 54.02 54.98 54.34 50.05 45.03 48.06 44.69 41.85 45.70 47.42 49.12 57.25 54.92 53.50 55.45 57.79 56.92
60.37 58.91 58.28 58.39 58.26 57.68 57.77 58.03 57.90 57.71 56.90 56.58 56.17 56.14 55.93 55.29 54.38 53.67 50.29 46.68 50.47 52.96 46.74 54.37 56.46 55.65 57.32 54.42 51.21 54.28 55.24 50.49 50.10 45.87 46.84 44.39 41.82 47.64 49.86 50.46 53.36 55.86 53.62 53.27 54.89 57.27 56.08
59.78 59.41 58.52 57.52 57.48 57.76 57.15 57.24 57.44 57.40 56.95 56.03 55.90 55.76 55.35 54.58 53.83 50.16 48.94 52.12 55.76 53.39 45.46 51.47 54.17 54.61 54.58 50.28 49.29 49.54 52.23 49.52 46.55 45.34 43.91 41.96 45.73 50.20 49.17 48.69 54.99 54.48 54.16 52.85 52.92 55.07 56.08
58.95 59.40 59.17 58.39 57.63 57.51 57.00 56.83 57.10 57.16 56.94 56.20 55.76 55.63 54.72 52.85 51.31 50.30 50.42 55.08 54.95 53.92 41.03 47.16 47.86 50.38 50.18 50.29 47.27 52.73 54.24 51.12 47.96 44.38 44.65 42.73 47.74 47.76 46.92 48.75 55.60 50.26 57.22 55.92 53.78 51.39 46.96
58.78 59.19 59.53 58.71 58.11 57.62 57.07 56.65 56.58 56.80 56.70 56.36 55.46 54.82 53.54 52.32 47.05 47.92 52.85 53.41 56.05 51.06 34.09 51.31 48.37 55.49 50.72 47.49 48.62 50.79 54.63 50.96 47.37 47.18 44.42 43.52 44.88 44.31 44.73 46.52 57.66 53.72 57.47 54.91 53.87 50.42 50.75
58.20 58.24 59.11 59.04 58.65 57.85 57.06 56.56 56.49 56.52 56.50 56.24 54.84 53.83 52.92 49.78 47.51 51.61 54.38 54.47 51.23 41.74 36.75 47.17 49.83 48.38 46.84 47.42 48.50 51.42 51.99 52.97 52.27 48.26 46.81 46.76 50.62 46.44 45.58 56.40 58.63 58.02 54.87 53.91 53.08 50.09 43.21
56.16 56.43 57.31 58.26 58.26 57.86 57.12 56.67 56.46 56.24 55.87 55.29 53.50 51.93 51.21 53.05 47.06 52.37 52.92 50.40 41.52 37.16 50.92 46.50 43.94 47.02 45.45 45.06 47.45 49.39 48.69 46.24 44.45 38.81 38.46 45.09 46.81 50.33 59.42 54.88 57.36 54.53 48.54 44.76 43.81 43.47 42.13
56.26 56.17 55.93 56.59 57.45 57.72 57.28 57.06 56.40 55.95 55.49 54.22 51.76 50.72 50.31 52.25 50.82 52.56 50.89 46.10 36.94 47.36 47.27 48.14 44.70 45.41 44.45 47.22 48.18 48.83 46.30 44.08 46.80 44.01 39.74 38.12 38.60 45.10 52.91 54.88 52.23 51.79 46.80 43.78 39.64 39.90 45.00
57.46 57.28 55.93 55.34 56.57 56.95 57.38 56.94 56.05 55.39 54.89 53.21 50.80 48.28 49.61 52.48 52.88 51.76 47.19 39.33 41.74 45.50 45.67 43.32 43.55 42.69 44.13 46.61 47.06 47.98 46.54 43.23 46.86 45.56 39.72 37.61 40.75 49.08 50.12 55.04 55.76 50.98 46.17 49.50 45.02 43.74 44.52
57.33 57.39 57.04 55.58 55.75 56.14 57.10 56.80 55.46 55.31 54.66 52.43 47.10 47.63 49.13 55.53 55.14 49.94 44.02 40.11 44.45 50.21 45.36 43.84 37.92 41.50 40.38 43.75 44.52 44.06 45.54 49.96 49.01 50.09 46.64 42.57 38.04 44.79 50.54 50.36 54.02 52.17 52.97 43.43 42.28 38.85 39.46
56.62 56.17 56.68 56.92 55.85 55.64 56.98 57.22 55.63 54.76 53.72 51.56 48.71 45.94 52.80 55.89 53.83 46.76 39.48 41.22 48.18 51.97 47.79 42.93 40.49 39.67 42.97 43.68 44.94 43.78 45.31 50.42 52.18 51.08 49.14 43.71 40.57 43.53 47.02 43.82 43.68 43.98 43.36 42.51 44.49 44.27 41.39
56.71 55.59 55.03 55.98 56.56 56.52 56.58 56.84 55.27 53.64 52.04 49.62 47.90 45.04 53.20 55.94 45.08 42.37 40.60 45.79 50.41 49.94 46.45 44.21 43.62 41.78 42.17 45.75 43.64 44.27 45.96 48.83 53.62 52.08 45.04 45.49 40.25 38.59 43.39 48.34 49.19 46.19 43.96 42.44 38.37 38.63 43.37
56.98 56.12 55.00 55.02 55.37 56.46 56.68 56.46 55.27 53.38 51.94 46.30 45.05 47.88 54.61 52.33 40.58 40.14 44.17 48.10 50.05 49.48 45.00 43.86 43.19 43.64 47.44 43.84 41.89 46.40 47.83 52.65 52.96 50.92 46.50 45.57 38.86 37.28 40.85 44.42 48.01 44.69 44.93 43.48 39.97 39.75 40.58
57.12 56.19 55.65 54.75 55.32 55.56 56.58 56.01 55.41 53.86 53.43 46.97 46.53 43.39 49.38 49.71 46.60 44.79 42.40 44.81 47.39 49.97 47.85 46.44 44.97 44.45 44.36 42.54 44.73 44.33 46.37 50.79 52.03 52.71 59.87 51.31 38.93 40.87 37.91 41.04 43.66 43.28 47.05 46.92 40.07 36.94 37.77
57.10 55.97 55.29 54.66 54.69 55.25 55.86 55.81 55.37 54.26 53.62 47.96 47.36 44.72 48.78 45.72 47.07 48.46 44.19 45.37 47.18 45.12 46.68 46.16 44.92 46.34 42.66 39.78 41.66 42.58 46.04 47.41 51.50 54.73 51.72 47.05 39.50 40.82 45.20 48.84 49.23 48.49 48.15 49.41 44.51 41.66 40.54
56.68 55.74 54.84 54.72 54.95 55.22 55.66 56.10 55.61 54.70 52.80 47.06 44.46 46.16 51.20 48.62 49.78 48.17 43.95 45.32 45.58 44.73 44.70 43.12 44.16 48.98 48.17 43.37 43.88 41.43 45.39 44.65 45.95 48.37 46.92 46.83 42.67 43.61 44.38 48.86 48.29 47.89 48.66 50.80 50.13 49.69 53.92
56.08 55.29 54.50 54.81 55.62 55.28 56.22 55.99 55.89 55.03 51.67 47.55 51.40 52.07 50.81 47.75 48.60 47.19 43.06 45.85 47.40 46.34 46.92 48.30 47.89 45.68 46.30 48.17 49.59 47.65 48.09 47.15 46.30 45.39 43.72 44.90 42.74 42.09 37.92 44.56 47.54 42.84 46.91 48.79 49.57 50.83 49.95
55.35 54.69 54.26 55.06 55.87 55.55 55.61 55.99 56.18 55.61 54.67 48.13 47.88 48.50 47.91 46.87 49.87 50.62 52.58 52.41 47.77 47.06 46.00 47.25 46.60 44.58 48.95 47.84 47.10 45.39 45.68 46.26 48.61 45.18 43.47 44.17 41.49 40.32 37.68 40.50 35.94 44.05 50.91 51.25 50.11 50.86 53.61
54.78 54.07 53.86 55.05 55.56 56.39 56.53 56.29 56.37 55.57 55.57 52.16 48.52 45.89 48.27 46.32 51.24 52.07 52.75 51.50 46.77 45.67 44.99 46.77 49.16 48.05 46.19 44.76 40.52 40.10 41.70 41.30 43.84 47.23 46.35 45.08 41.70 39.02 36.12 35.87 41.83 47.28 49.51 49.16 47.04 46.85 54.04
54.03 53.48 54.15 54.91 55.64 56.00 56.15 56.44 56.45 56.06 54.99 53.75 48.00 48.98 47.26 48.89 47.35 53.97 51.68 49.59 43.16 42.77 45.04 47.02 48.55 48.01 46.72 41.81 40.60 35.32 34.37 38.83 40.06 43.73 45.42 45.10 44.82 40.79 37.00 34.57 34.56 44.17 51.29 54.23 52.87 43.10 54.05
53.41 54.13 54.92 55.35 55.55 55.50 55.73 56.42 56.70 56.69 54.99 54.04 49.25 49.35 47.81 49.38 51.32 52.85 50.40 49.38 49.98 45.75 44.32 45.13 45.33 44.15 45.01 39.84 39.80 38.22 37.08 43.81 36.14 38.37 39.63 39.74 40.06 37.51 38.33 35.86 40.89 48.34 51.61 54.01 43.92 43.85 54.86
53.82 54.19 54.82 55.03 55.35 55.29 55.66 56.27 56.35 56.31 55.68 53.22 48.41 50.63 48.25 50.83 52.09 55.56 55.42 50.63 49.37 47.50 44.29 46.46 46.24 45.60 42.43 40.14 41.05 39.65 39.05 40.46 38.21 41.74 43.27 42.70 38.08 38.88 36.29 33.16 33.08 51.16 51.68 46.59 50.21 54.05 56.23
53.83 54.14 54.83 55.13 55.35 55.07 55.72 56.22 56.56 55.82 55.74 54.44 45.98 51.75 52.85 52.21 51.64 55.45 56.68 55.76 52.65 52.12 49.56 47.69 47.11 46.88 46.80 43.28 42.48 43.38 40.82 40.77 38.14 37.38 44.07 40.11 44.22 43.30 44.31 40.93 46.40 50.14 50.05 54.27 53.67 56.20 56.82
MSLP
1021.22 1021.03 1020.93 1020.77 1020.55 1020.36 1020.14 1019.87 1019.60 1019.34 1019.06 1018.78 1018.46 1018.13 1017.84 1017.56 1017.28 1017.02 1016.79 1016.62 1016.46 1016.30 1016.11 1015.86 1015.67 1015.32 1014.74 1013.79 1010.87 1008.43 1008.67 1009.07 1009.68 1010.05 1010.20 1010.49 1010.52 1010.27 1009.78 1009.29 1009.65 1010.33 1011.53 1012.15 1012.38 1012.91 1012.63
1021.27 1021.09 1020.95 1020.82 1020.60 1020.40 1020.11 1019.80 1019.52 1019.26 1019.01 1018.72 1018.38 1018.06 1017.75 1017.46 1017.15 1016.84 1016.60 1016.44 1016.31 1016.13 1015.95 1015.68 1015.52 1015.29 1014.83 1012.42 1008.41 1008.41 1008.78 1009.29 1009.52 1009.94 1009.94 1010.10 1009.60 1009.67 1009.50 1008.96 1009.23 1009.72 1010.80 1011.78 1012.35 1012.53 1012.50
1021.31 1021.14 1020.96 1020.80 1020.68 1020.40 1020.08 1019.77 1019.44 1019.14 1018.89 1018.59 1018.23 1017.89 1017.58 1017.25 1016.94 1016.61 1016.38 1016.20 1016.06 1015.92 1015.75 1015.54 1015.42 1015.12 1014.19 1010.43 1008.32 1008.73 1009.10 1009.06 1008.92 1009.25 1009.47 1009.21 1009.37 1010.00 1009.33 1009.03 1008.51 1009.32 1010.81 1012.15 1012.30 1012.79 1012.76
1021.39 1021.22 1021.02 1020.82 1020.68 1020.42 1020.10 1019.78 1019.42 1019.12 1018.81 1018.47 1018.11 1017.79 1017.49 1017.16 1016.79 1016.43 1016.08 1015.82 1015.72 1015.55 1015.41 1015.28 1015.27 1014.97 1012.76 1008.89 1008.31 1008.82 1008.59 1008.67 1008.67 1008.85 1008.97 1008.56 1009.24 1009.68 1009.62 1008.89 1008.94 1009.44 1010.62 1011.98 1012.65 1013.68 1013.81
1021.62 1021.46 1021.23 1020.91 1020.66 1020.46 1020.14 1019.81 1019.45 1019.09 1018.71 1018.36 1018.01 1017.64 1017.23 1016.87 1016.58 1016.18 1015.63 1015.27 1015.19 1015.01 1015.01 1015.07 1015.23 1014.43 1011.42 1008.39 1008.10 1007.18 1007.81 1008.22 1008.37 1008.73 1008.71 1008.61 1009.11 1009.25 1009.09 1009.42 1009.75 1010.21 1011.20 1012.10 1011.80 1014.82 1013.15
1021.86 1021.64 1021.40 1021.03 1020.71 1020.55 1020.19 1019.81 1019.42 1019.00 1018.59 1018.26 1017.91 1017.56 1017.13 1016.73 1016.35 1015.91 1015.16 1014.58 1014.49 1014.63 1014.64 1014.59 1014.16 1013.73 1010.24 1008.14 1007.25 1006.84 1006.94 1007.63 1008.33 1008.42 1009.00 1009.05 1009.40 1009.46 1009.73 1010.24 1010.64 1010.77 1011.51 1013.27 1014.26 1014.58 1014.45
1022.00 1021.84 1021.53 1021.14 1020.85 1020.58 1020.28 1019.90 1019.45 1019.01 1018.58 1018.19 1017.80 1017.35 1016.92 1016.59 1016.27 1015.92 1015.11 1014.46 1014.54 1014.34 1013.80 1012.44 1011.44 1010.76 1008.95 1007.32 1006.49 1006.74 1006.69 1007.30 1007.86 1008.41 1009.05 1009.08 1009.76 1009.87 1009.87 1009.74 1010.44 1011.14 1012.29 1013.67 1015.06 1015.09 1014.19
1022.11 1021.91 1021.60 1021.26 1020.89 1020.54 1020.29 1019.97 1019.51 1019.02 1018.59 1018.17 1017.71 1017.23 1016.69 1016.19 1015.92 1015.83 1015.99 1014.84 1012.54 1012.08 1011.65 1010.14 1009.56 1009.15 1007.94 1007.42 1007.08 1006.61 1006.54 1007.40 1007.79 1008.60 1008.92 1009.60 1009.57 1009.10 1009.34 1009.90 1010.30 1011.31 1012.80 1014.21 1014.97 1015.13 1014.95
1022.21 1021.93 1021.62 1021.28 1020.86 1020.52 1020.23 1019.90 1019.47 1018.97 1018.51 1018.06 1017.62 1017.14 1016.56 1015.81 1015.29 1015.49 1015.00 1013.07 1010.71 1011.54 1011.53 1008.85 1007.80 1007.59 1007.18 1007.00 1006.83 1006.64 1006.83 1007.13 1007.86 1008.50 1009.08 1009.44 1008.49 1008.71 1009.34 1009.83 1010.30 1011.38 1012.11 1013.87 1014.78 1015.71 1016.10
1022.26 1021.90 1021.55 1021.20 1020.87 1020.53 1020.16 1019.72 1019.26 1018.80 1018.39 1017.96 1017.51 1017.03 1016.58 1015.66 1015.11 1014.93 1013.47 1010.99 1011.12 1011.34 1011.34 1008.98 1007.17 1006.20 1006.28 1006.40 1006.58 1006.18 1006.40 1007.17 1007.90 1008.36 1008.78 1008.91 1008.07 1008.41 1008.64 1009.25 1009.92 1011.16 1012.07 1012.85 1014.27 1015.45 1015.73
1022.33 1021.88 1021.52 1021.19 1020.84 1020.46 1020.09 1019.63 1019.15 1018.58 1018.10 1017.69 1017.26 1016.86 1016.58 1016.43 1015.91 1014.74 1011.66 1011.10 1010.56 1011.11 1010.71 1007.58 1006.46 1005.21 1005.84 1006.46 1006.36 1006.00 1005.92 1006.94 1007.57 1008.24 1008.84 1008.28 1007.96 1007.76 1007.83 1008.02 1009.00 1011.41 1012.25 1012.50 1014.58 1015.62 1016.02
1022.50 1022.04 1021.53 1021.15 1020.79 1020.38 1019.96 1019.48 1018.96 1018.38 1017.83 1017.33 1016.85 1016.59 1016.51 1016.24 1015.93 1012.60 1011.89 1011.04 1010.71 1011.24 1009.50 1007.23 1006.16 1005.86 1006.31 1006.41 1006.38 1006.03 1006.33 1006.63 1006.99 1007.89 1008.23 1007.87 1006.99 1006.94 1006.81 1007.18 1008.43 1010.92 1012.13 1013.18 1014.24 1015.75 1015.86
1022.58 1022.11 1021.62 1021.22 1020.75 1020.27 1019.83 1019.30 1018.74 1018.12 1017.48 1016.91 1016.30 1016.08 1016.30 1015.54 1013.52 1011.91 1011.82 1011.55 1011.77 1010.91 1008.72 1007.66 1007.05 1006.56 1006.67 1006.71 1006.59 1006.47 1006.89 1007.25 1007.73 1008.28 1008.55 1007.68 1006.66 1006.67 1006.89 1009.00 1010.29 1011.00 1011.50 1013.71 1015.06 1015.52 1015.09
1022.50 1022.04 1021.67 1021.23 1020.73 1020.17 1019.71 1019.16 1018.52 1017.85 1017.09 1016.40 1015.56 1014.95 1014.30 1013.60 1012.17 1012.48 1012.39 1012.52 1011.93 1010.43 1009.12 1007.83 1007.25 1006.88 1007.38 1007.05 1007.08 1007.00 1007.37 1007.89 1008.00 1008.41 1008.94 1008.62 1007.27 1006.14 1007.09 1007.64 1008.71 1010.05 1010.31 1011.75 1013.32 1014.55 1014.40
1022.42 1022.05 1021.60 1021.15 1020.70 1020.13 1019.59 1019.01 1018.41 1017.64 1016.73 1015.90 1014.92 1014.06 1013.76 1011.36 1012.03 1012.86 1013.09 1012.86 1011.35 1009.95 1008.71 1008.04 1007.75 1007.97 1007.75 1007.48 1007.68 1007.66 1008.36 1008.23 1007.82 1008.20 1009.00 1008.56 1007.26 1005.84 1005.73 1006.49 1007.60 1009.66 1009.54 1009.80 1012.04 1013.37 1013.76
1022.26 1021.97 1021.59 1021.09 1020.66 1020.15 1019.56 1018.97 1018.31 1017.47 1016.40 1015.63 1015.04 1014.21 1012.35 1010.10 1011.23 1012.31 1013.08 1012.54 1010.67 1009.22 1008.10 1007.89 1008.52 1008.54 1008.60 1008.23 1008.63 1008.78 1008.87 1008.80 1008.75 1008.51 1008.38 1008.08 1008.15 1006.30 1005.32 1005.36 1006.35 1006.48 1007.46 1009.49 1011.11 1012.71 1013.35
1022.11 1021.84 1021.51 1021.08 1020.53 1020.11 1019.55 1018.99 1018.34 1017.39 1016.06 1015.11 1014.97 1013.78 1009.74 1009.65 1010.69 1012.61 1013.08 1011.83 1010.09 1008.54 1007.68 1007.80 1008.30 1008.72 1009.01 1009.01 1009.34 1009.95 1009.80 1009.12 1009.06 1008.59 1008.36 1008.57 1008.18 1007.38 1006.24 1005.89 1005.84 1006.37 1007.07 1008.56 1009.63 1010.60 1011.50
1021.76 1021.56 1021.29 1020.93 1020.52 1020.05 1019.54 1019.02 1018.47 1017.62 1016.27 1015.29 1015.35 1013.59 1009.52 1009.20 1011.31 1012.12 1011.99 1010.56 1009.15 1008.16 1007.59 1007.71 1007.95 1008.68 1009.39 1009.74 1010.77 1010.83 1010.43 1009.83 1009.57 1009.28 1009.14 1008.73 1008.89 1008.50 1007.30 1006.07 1005.37 1005.41 1006.51 1007.78 1009.46 1010.12 1010.15
1021.40 1021.21 1020.96 1020.68 1020.39 1020.02 1019.61 1019.08 1018.57 1018.03 1017.62 1017.61 1016.32 1013.53 1009.12 1009.33 1010.94 1011.72 1010.65 1009.79 1009.15 1008.24 1007.72 1007.72 1008.23 1008.61 1009.35 1010.51 1011.44 1011.46 1010.88 1009.79 1009.63 1009.60 1009.61 1009.39 1009.63 1009.40 1008.18 1007.00 1005.92 1006.74 1007.08 1007.56 1008.11 1008.94 1009.40
1021.06 1020.85 1020.65 1020.41 1020.13 1019.81 1019.47 1019.10 1018.58 1018.17 1017.88 1017.78 1016.88 1014.46 1011.44 1010.27 1010.35 1010.63 1010.51 1009.65 1008.53 1007.27 1007.20 1007.64 1008.04 1008.41 1009.69 1010.91 1011.71 1011.84 1011.37 1010.40 1009.72 1009.30 1009.19 1009.60 1010.50 1010.54 1010.35 1009.85 1008.76 1008.16 1007.96 1007.66 1007.92 1008.85 1009.01
1020.63 1020.51 1020.32 1020.17 1019.87 1019.55 1019.24 1018.92 1018.49 1018.07 1017.64 1017.82 1016.68 1014.86 1012.61 1011.91 1011.21 1010.84 1010.45 1009.39 1008.47 1007.40 1007.43 1007.68 1008.40 1008.81 1009.63 1011.20 1011.90 1012.09 1011.73 1011.19 1010.12 1009.60 1009.40 1009.87 1010.63 1010.79 1010.36 1010.28 1009.29 1009.25 1009.26 1008.72 1008.42 1008.57 1008.65
1020.23 1020.17 1020.02 1019.90 1019.60 1019.22 1018.94 1018.74 1018.42 1017.94 1017.43 1017.40 1016.50 1015.09 1013.36 1012.57 1011.72 1010.96 1009.42 1008.72 1007.99 1007.50 1007.52 1008.10 1008.64 1009.04 1009.39 1010.71 1011.14 1011.60 1011.96 1011.78 1011.06 1010.10 1010.40 1010.76 1011.28 1011.33 1011.23 1010.47 1010.29 1010.08 1010.24 1009.79 1009.47 1009.24 1008.97
1019.88 1019.83 1019.69 1019.52 1019.31 1018.94 1018.65 1018.40 1018.24 1017.87 1017.49 1017.28 1015.68 1014.75 1014.31 1012.73 1011.90 1011.02 1009.73 1008.34 1007.68 1007.32 1007.78 1007.58 1008.18 1008.99 1009.63 1009.94 1010.33 1010.26 1010.65 1010.98 1011.41 1011.36 1011.53 1011.84 1012.24 1012.84 1012.96 1012.30 1011.30 1011.58 1011.87 1011.64 1011.30 1011.24 1010.88
1019.58 1019.50 1019.32 1019.11 1018.86 1018.54 1018.40 1018.21 1018.00 1017.89 1017.81 1017.92 1016.91 1016.07 1015.23 1013.59 1012.19 1011.12 1009.82 1008.69 1007.51 1007.33 1007.68 1007.91 1008.12 1008.67 1009.26 1009.27 1009.72 1010.41 1011.26 1012.00 1011.92 1011.64 1011.91 1012.62 1013.12 1013.76 1014.16 1013.20 1012.96 1013.00 1012.73 1012.33 1011.85 1011.79 1011.38
1019.18 1019.21 1019.02 1018.74 1018.46 1018.16 1017.98 1017.86 1017.72 1017.63 1017.60 1017.68 1017.29 1016.87 1015.74 1014.05 1012.34 1010.85 1009.75 1008.60 1008.07 1007.80 1007.79 1007.93 1008.32 1008.65 1008.90 1009.73 1011.16 1012.29 1012.82 1012.87 1012.93 1012.57 1012.14 1012.52 1013.52 1014.99 1015.32 1014.91 1014.12 1013.05 1012.38 1012.28 1012.44 1012.69 1012.37
1018.86 1018.82 1018.61 1018.32 1018.01 1017.75 1017.57 1017.39 1017.31 1017.31 1017.24 1017.24 1016.85 1016.64 1016.16 1014.59 1012.10 1010.91 1009.93 1009.27 1008.64 1008.45 1008.49 1008.42 1008.37 1008.31 1009.10 1011.01 1012.68 1014.31 1014.81 1015.10 1014.55 1013.64 1012.87 1013.18 1013.77 1015.00 1016.07 1015.53 1014.44 1013.02 1012.17 1011.96 1012.25 1013.28 1012.81
1018.47 1018.24 1018.03 1017.78 1017.56 1017.33 1017.13 1017.00 1016.84 1016.89 1016.89 1016.92 1016.47 1015.97 1015.71 1014.46 1011.74 1010.55 1010.10 1009.71 1009.14 1008.66 1008.79 1008.89 1008.68 1008.91 1009.69 1012.05 1013.84 1015.17 1015.90 1015.98 1015.61 1014.92 1014.49 1014.43 1015.03 1015.97 1016.35 1015.53 1014.12 1012.88 1012.33 1011.53 1012.23 1013.22 1013.13
1018.07 1017.88 1017.53 1017.28 1017.12 1016.82 1016.72 1016.51 1016.42 1016.47 1016.51 1016.59 1015.75 1015.27 1015.05 1013.99 1011.82 1010.58 1009.93 1009.82 1009.60 1008.95 1009.07 1009.08 1009.32 1010.02 1011.08 1012.71 1014.08 1015.26 1015.84 1016.19 1015.93 1015.03 1014.47 1014.77 1015.76 1016.84 1016.87 1015.57 1013.87 1012.31 1012.10 1011.99 1012.37 1012.67 1012.83
1017.65 1017.41 1017.03 1016.81 1016.59 1016.44 1016.21 1016.07 1015.99 1016.10 1016.08 1016.23 1016.15 1014.33 1014.41 1014.37 1011.88 1010.38 1009.56 1008.78 1008.96 1008.47 1008.34 1008.77 1009.50 1010.00 1010.63 1012.07 1013.45 1014.30 1015.32 1015.85 1015.51 1014.87 1014.05 1014.23 1014.32 1015.24 1015.56 1014.44 1013.12 1012.18 1011.45 1011.61 1011.94 1012.73 1013.20
Wind_Speed
11 12 13 12 11 12 12 12 11 11 11 12 12 13 13 13 13 13 13 12 10 10 10 10 10 12 5 1 10 4 7 11 7 6 6 5 4 5 4 7 7 6 11 10 2 7 7
10 12 13 13 13 13 12 12 12 11 11 11 12 12 12 13 14 14 14 12 11 10 9 9 9 11 1 3 4 10 9 7 5 6 6 7 8 1 7 8 7 8 10 8 3 3 6
9 10 13 13 13 12 12 13 13 13 12 13 12 12 13 13 13 14 14 13 12 11 10 7 6 4 2 14 4 6 5 6 6 7 5 7 3 2 7 8 5 9 7 12 7 8 3
10 10 10 12 12 11 12 13 13 13 13 13 13 14 14 14 14 15 14 12 13 12 9 6 4 2 8 7 4 8 9 3 5 7 7 6 2 5 6 4 4 1 3 5 8 10 7
11 11 13 11 12 10 11 12 12 12 12 13 14 14 15 15 14 14 15 15 14 11 7 3 1 1 11 11 2 9 8 9 5 4 6 11 1 6 5 2 5 1 4 3 10 7 3
11 13 14 14 13 12 11 11 12 12 12 13 13 14 14 14 13 14 19 17 4 5 3 5 6 3 6 4 3 4 6 5 4 3 4 4 2 1 4 5 6 3 2 10 8 6 5
11 12 13 13 14 14 13 13 13 13 13 13 14 14 15 14 13 12 9 3 4 2 1 9 7 5 10 6 3 1 5 5 4 4 4 4 4 4 8 8 0 4 8 11 4 3 6
10 12 15 11 11 13 13 14 14 14 14 14 14 15 16 16 14 10 2 1 7 3 9 13 13 8 11 3 4 5 4 3 3 5 2 4 5 11 7 4 7 12 14 5 3 2 1
11 10 11 14 14 13 14 14 15 15 15 15 15 15 16 19 20 1 3 8 8 8 3 11 5 5 7 7 5 7 6 5 1 3 3 7 13 8 6 4 8 6 8 8 5 6 2
12 11 10 11 12 14 16 16 15 15 15 15 15 15 15 25 1 4 6 5 6 6 5 9 3 5 3 5 4 8 8 6 1 9 7 7 13 10 7 11 7 4 9 15 11 2 1
14 12 12 11 11 12 14 18 18 15 15 15 15 15 12 7 4 2 8 9 10 5 4 4 3 5 4 7 2 4 6 3 8 6 4 11 6 5 8 11 8 6 8 17 8 2 3
14 15 14 12 12 12 13 14 19 16 16 16 16 13 11 3 2 10 10 13 4 7 4 4 4 5 3 3 3 2 6 1 3 1 4 11 7 8 8 2 13 22 16 10 8 1 1
15 15 15 14 14 13 13 15 16 17 18 19 19 13 5 3 7 4 7 5 6 4 7 7 2 4 5 5 1 8 7 4 3 2 4 8 6 5 20 21 8 3 7 4 3 1 4
13 13 15 14 15 15 14 14 16 18 19 20 20 23 7 7 5 4 5 6 3 5 6 6 6 4 3 4 3 6 6 4 5 5 1 2 9 4 9 12 15 14 6 7 8 5 2
13 14 16 17 14 16 15 15 17 19 21 21 23 1 2 7 7 3 6 3 6 2 4 5 9 8 7 5 3 7 5 3 6 7 5 2 7 7 4 8 14 8 6 5 8 3 3
12 13 15 17 14 15 16 15 18 20 23 23 3 4 5 5 11 6 6 5 4 3 2 6 3 1 3 4 5 4 5 3 8 4 5 7 5 5 8 6 10 15 9 4 3 6 3
14 14 14 15 17 17 15 14 17 20 25 11 2 4 6 10 5 6 3 7 6 7 2 3 3 4 5 3 4 4 5 4 11 9 7 5 5 9 2 1 9 2 4 4 5 6 6
9 14 15 15 15 16 15 14 15 17 24 6 3 2 3 7 5 3 4 6 3 7 1 3 4 4 3 5 5 4 4 2 9 10 7 3 3 2 8 7 8 8 8 7 6 4 2
9 10 15 15 16 14 14 14 12 14 12 3 3 5 5 7 4 4 7 8 6 7 3 3 2 3 3 2 5 2 3 4 5 4 4 6 4 5 11 9 9 7 5 1 4 4 5
8 10 12 14 13 15 12 13 11 12 9 2 2 3 6 4 2 8 5 7 6 6 4 4 4 0 4 4 6 3 3 4 6 4 5 3 3 4 3 6 5 6 12 9 3 4 3
9 10 12 13 13 14 13 10 12 11 10 1 2 5 4 3 5 6 1 5 9 4 3 5 5 5 2 4 3 3 2 6 4 4 4 4 1 3 2 4 5 10 15 15 6 4 5
8 9 11 13 13 13 13 9 11 11 11 2 1 1 6 3 4 6 4 9 9 2 5 1 6 5 8 6 7 7 5 4 5 5 5 4 2 3 5 7 8 5 19 14 10 13 5
7 8 11 12 13 12 10 10 9 11 6 2 4 4 3 4 4 4 3 8 8 9 4 6 8 6 5 3 7 7 10 5 2 1 2 3 3 3 2 5 4 9 10 11 1 11 7
8 9 11 12 13 12 11 10 6 8 4 1 4 2 1 5 1 3 10 5 10 5 7 4 5 5 5 2 2 5 4 6 6 4 4 1 4 3 2 5 4 5 4 0 6 10 11
9 9 11 12 13 12 11 10 8 4 5 2 3 2 2 4 2 7 13 2 3 4 3 4 2 4 2 7 4 6 6 5 7 5 9 4 5 4 4 1 1 3 3 3 4 5 8
8 10 12 13 13 13 12 11 9 5 6 2 4 4 2 2 4 4 5 4 1 3 1 3 2 4 7 4 4 3 1 1 5 9 5 5 8 6 2 4 5 6 4 0 2 2 1
10 11 13 12 13 12 12 12 11 6 6 2 4 2 2 3 5 3 3 4 5 1 3 2 3 3 5 3 3 4 2 0 2 1 3 4 4 4 1 1 5 5 4 4 5 4 7
12 13 13 12 13 12 12 12 10 6 6 2 6 5 3 3 6 4 2 2 6 3 5 5 6 6 4 4 3 3 3 5 2 4 5 3 5 3 2 1 1 6 2 6 4 1 7
12 13 13 12 12 12 12 11 9 5 6 3 4 3 2 4 7 3 12 15 10 17 5 2 6 3 5 5 1 4 3 2 4 3 1 1 8 9 9 7 5 5 3 5 4 6 4
Wind_Direction
15 11 7 8 6 3 1 356 350 348 345 341 337 333 331 329 324 319 316 314 316 319 319 321 325 327 349 2 251 196 118 146 136 154 187 175 218 203 232 196 161 184 174 193 210 297 282
17 17 10 6 5 360 355 354 352 350 346 342 336 332 329 328 328 322 316 314 312 311 311 315 321 323 331 297 248 145 144 140 175 169 189 172 219 205 283 229 178 121 180 170 183 250 293
17 16 13 8 2 355 352 351 348 347 344 342 339 336 332 331 330 323 316 310 308 305 301 304 311 299 299 238 75 123 174 197 181 173 193 215 226 235 347 326 188 151 123 133 166 163 250
17 11 6 7 4 355 351 348 348 345 341 339 337 336 333 333 328 323 308 296 296 295 289 281 278 302 251 256 262 203 202 254 191 196 223 254 162 278 213 288 308 235 88 148 226 160 250
16 21 5 5 2 352 350 348 344 342 340 337 336 334 332 331 328 320 307 297 293 277 257 215 209 177 272 303 221 246 157 204 188 229 246 265 308 216 326 43 2 30 238 166 146 68 324
15 9 3 1 359 353 345 346 342 340 338 337 334 332 328 327 327 324 313 297 244 312 201 188 255 314 270 289 220 212 218 170 188 206 352 210 199 59 36 85 224 231 179 63 74 360 70
17 9 1 3 357 353 346 344 341 338 338 337 333 331 328 326 325 328 350 7 24 16 216 209 207 232 279 274 151 153 203 180 184 128 190 275 99 212 233 221 130 81 59 103 102 274 68
10 8 4 359 353 353 348 343 339 336 335 335 333 329 326 322 321 321 314 227 214 165 307 227 243 239 260 300 302 260 90 141 123 193 169 13 225 223 228 262 278 101 118 96 75 266 25
355 354 1 359 357 353 350 345 336 335 332 331 330 328 325 319 315 131 200 231 260 52 316 300 225 182 221 153 230 257 128 193 144 191 199 182 237 222 216 242 154 166 139 167 154 156 184
348 348 347 352 353 350 347 343 336 331 330 328 327 327 329 325 12 337 265 299 313 153 40 280 243 252 125 139 292 216 193 151 214 207 225 218 252 235 229 206 145 121 142 130 132 132 324
354 346 344 342 345 346 343 342 338 327 327 326 325 323 328 315 290 293 249 336 315 73 28 213 210 197 140 146 170 244 178 110 217 260 87 259 295 248 229 214 142 147 138 98 105 106 194
350 350 348 342 338 338 338 337 336 325 324 321 316 318 331 99 237 242 329 305 44 50 282 222 142 193 128 249 224 199 153 224 164 234 249 246 242 197 213 97 129 131 105 75 92 22 344
353 351 349 344 336 332 329 332 329 324 321 318 311 302 289 277 238 38 330 24 43 104 313 344 221 209 191 256 138 136 174 200 157 64 324 332 282 89 102 91 88 87 83 58 33 239 231
353 347 344 340 340 334 329 328 329 326 322 318 310 309 217 213 249 3 27 46 72 242 278 287 5 34 165 39 8 219 134 196 271 118 349 244 322 133 173 156 173 189 159 156 167 199 156
329 335 347 342 336 333 331 329 330 328 323 322 315 325 236 248 189 113 71 61 214 265 283 14 3 33 347 3 91 45 350 231 214 166 176 211 271 310 286 150 139 231 235 168 103 27 118
328 332 332 345 338 335 330 332 338 332 326 328 325 339 256 145 143 75 73 247 264 270 262 52 67 62 329 307 59 57 30 44 355 333 193 240 280 262 292 112 218 151 172 68 20 141 120
329 328 332 334 343 338 332 335 339 337 332 340 19 6 257 132 96 55 169 235 274 267 255 103 354 8 292 252 94 10 354 323 4 346 13 337 123 283 339 103 208 54 108 75 120 142 142
318 327 329 330 334 336 335 338 341 343 338 51 346 340 251 143 85 199 205 216 265 327 206 62 77 44 357 19 50 50 4 299 360 348 348 304 131 290 241 280 242 159 177 137 127 245 223
306 318 327 328 329 330 333 335 341 346 30 335 340 264 307 110 175 252 282 272 250 284 254 92 37 106 66 73 98 134 301 285 2 18 338 321 7 1 346 348 11 41 359 256 137 80 202
298 314 320 325 324 329 328 331 335 339 350 103 354 335 314 33 164 177 237 277 281 225 125 163 189 77 122 65 1 195 278 296 320 327 332 108 84 139 176 250 257 352 339 343 115 114 191
299 306 315 319 322 326 327 333 330 330 329 122 156 258 218 296 325 329 219 266 294 185 83 25 28 51 105 100 28 309 290 314 275 350 2 116 214 224 142 1 12 45 15 355 10 279 155
288 298 311 313 315 323 328 327 331 329 337 92 220 15 337 278 278 312 195 230 223 86 119 129 101 90 85 145 186 218 190 178 255 340 35 7 298 32 1 359 26 40 16 19 29 356 3
288 296 305 306 306 318 316 325 335 340 353 333 304 329 113 270 330 347 277 278 180 127 32 113 114 87 66 199 192 221 186 192 48 6 1 80 88 55 245 339 344 19 359 19 102 15 303
293 300 303 303 308 315 318 318 321 336 14 187 269 339 5 274 328 307 317 327 114 114 132 122 122 114 215 302 238 43 47 40 3 354 160 133 98 97 270 0 130 209 243 198 71 21 4
301 308 300 302 305 311 311 307 305 310 310 213 293 334 286 280 325 312 339 322 106 108 113 123 109 176 191 55 39 31 351 31 334 341 357 145 117 68 101 97 300 305 343 30 43 350 347
304 303 300 297 307 306 306 306 300 274 295 250 239 197 285 286 232 313 319 3 199 135 55 90 156 153 72 86 70 100 228 204 320 333 6 60 84 100 116 144 189 224 279 47 137 4 5
301 298 293 300 298 299 300 300 296 277 292 249 273 236 256 256 259 13 21 292 295 112 129 167 172 69 76 81 92 156 199 67 262 311 334 3 21 96 51 248 286 252 283 337 80 239 134
301 301 300 299 298 296 295 294 286 271 286 219 267 228 162 268 286 276 325 346 332 15 130 245 43 353 45 73 111 203 142 205 162 232 167 152 107 33 356 355 267 186 139 100 232 116 142
301 299 298 295 294 292 294 289 279 252 273 195 275 306 159 219 248 281 263 247 200 239 158 23 168 167 192 97 152 120 134 147 179 239 55 131 165 174 183 218 257 291 101 72 137 150 197